Sioux City, IA

4:15 AM CDT on August 17, 2017 (GMT -0500)
Sioux Gateway

Weather History for KSUX - May, 2014

Change the Weather History Date:

Thursday, May 22, 2014

  Actual Average Record
Temperature  
Mean Temperature 68 °F 63 °F  
Max Temperature 81 °F 75 °F 92 °F (2000)
Min Temperature 55 °F 51 °F 31 °F (1963)
Degree Days  
Heating Degree Days 0 4  
Month to date heating degree days 177 152  
Since 1 July heating degree days 7226 6804  
Cooling Degree Days 3 2  
Month to date cooling degree days 35 30  
Year to date cooling degree days 44 41  
Growing Degree Days 18 (Base 50)    
Moisture  
Dew Point 43 °F    
Average Humidity 45    
Maximum Humidity 67    
Minimum Humidity 23    
Precipitation  
Precipitation 0.00 in 0.13 in 2.23 in (1936)
Month to date precipitation 0.58 2.61  
Year to date precipitation 3.80 8.85  
Snow  
Snow 0.00 in 0.00 in 0.00 in ()
Month to date snowfall 0.0 0.2  
Since 1 July snowfall 23.8 35.0  
Snow Depth 0.00 in    
Sea Level Pressure  
Sea Level Pressure 30.15 in    
Wind  
Wind Speed 5 mph (East)    
Max Wind Speed 16 mph    
Max Gust Speed 21 mph    
Visibility 10 miles    
Events      
T = Trace of Precipitation, MM = Missing Value Source: NWS Daily Summary

Daily Weather History Graph

Daily Weather History Graph

Search for Another Location

Airport or City:

Trip Planner

Search our weather history database for the weather conditions in past years. The results will help you decide how hot, cold, wet, or windy it might be!

Date:

Astronomy

May. 22, 2014 Rise Set
Actual Time 5:57 AM CDT 8:47 PM CDT
Civil Twilight 5:24 AM CDT 9:20 PM CDT
Nautical Twilight 4:42 AM CDT 10:02 PM CDT
Astronomical Twilight 3:54 AM CDT 10:50 PM CDT
Moon 2:25 AM CDT (5/22) 2:28 PM CDT (5/22)
Length of Visible Light 15h 55m
Length of Day
14h 49m
Last Quarter, 37% of the Moon is Illuminated
May 22
Last Quarter
May 28
New
Jun 5
First Quarter
Jun 12
Full
Jun 19
Last Quarter

Hourly Weather History & Observations

Time (CDT) Temp. Dew Point Humidity Pressure Visibility Wind Dir Wind Speed Gust Speed Precip Events Conditions
12:52 AM 64.0 °F 42.1 °F 45% 30.12 in 10.0 mi ENE 10.4 mph - N/A   Clear
1:52 AM 62.1 °F 43.0 °F 50% 30.12 in 10.0 mi ENE 8.1 mph - N/A   Clear
2:52 AM 60.1 °F 43.0 °F 53% 30.11 in 10.0 mi East 4.6 mph - N/A   Clear
3:52 AM 57.9 °F 44.1 °F 60% 30.12 in 10.0 mi East 4.6 mph - N/A   Clear
4:52 AM 57.9 °F 44.1 °F 60% 30.14 in 10.0 mi Calm Calm - N/A   Clear
5:52 AM 55.9 °F 44.1 °F 64% 30.17 in 10.0 mi NNW 3.5 mph - N/A   Partly Cloudy
6:52 AM 55.9 °F 45.0 °F 67% 30.20 in 10.0 mi Calm Calm - N/A   Partly Cloudy
7:52 AM 57.9 °F 46.0 °F 65% 30.21 in 10.0 mi ESE 6.9 mph - N/A   Scattered Clouds
8:52 AM 61.0 °F 46.0 °F 58% 30.19 in 10.0 mi East 11.5 mph - N/A   Clear
9:52 AM 64.4 °F 46.4 °F 52% 30.19 in 10.0 mi East 11.5 mph - N/A   Partly Cloudy
10:52 AM 66.9 °F 45.0 °F 45% 30.19 in 10.0 mi East 11.5 mph - N/A   Clear
11:52 AM 70.0 °F 43.0 °F 38% 30.18 in 10.0 mi East 10.4 mph - N/A   Clear
12:52 PM 73.9 °F 43.0 °F 33% 30.18 in 10.0 mi Variable 4.6 mph - N/A   Clear
1:52 PM 75.0 °F 41.0 °F 29% 30.17 in 10.0 mi Variable 3.5 mph - N/A   Clear
2:52 PM 77.0 °F 41.0 °F 28% 30.15 in 10.0 mi East 6.9 mph - N/A   Clear
3:52 PM 79.0 °F 39.9 °F 25% 30.13 in 10.0 mi Calm Calm - N/A   Clear
4:52 PM 81.0 °F 39.9 °F 23% 30.12 in 10.0 mi North 3.5 mph - N/A   Clear
5:52 PM 80.6 °F 41.0 °F 24% 30.11 in 10.0 mi Calm Calm - N/A   Clear
6:52 PM 80.1 °F 43.0 °F 27% 30.09 in 10.0 mi East 6.9 mph - N/A   Clear
7:52 PM 75.9 °F 44.1 °F 32% 30.09 in 10.0 mi East 4.6 mph - N/A   Clear
8:52 PM 73.0 °F 42.1 °F 33% 30.11 in 10.0 mi ESE 3.5 mph - N/A   Clear
9:52 PM 68.0 °F 39.9 °F 36% 30.13 in 10.0 mi South 3.5 mph - N/A   Clear
10:52 PM 69.1 °F 42.1 °F 38% 30.13 in 10.0 mi East 3.5 mph - N/A   Clear
11:52 PM 63.0 °F 42.1 °F 46% 30.15 in 10.0 mi East 3.5 mph - N/A   Clear